Regional Weather Roundup
Issued by NWS State College, PA

Home | Current Version | Previous Version | Text Only | Print | Product List | Glossary On
Versions: 1 2 3 4 5 6 7 8 9 10 11 12 13 14 15 16 17 18 19 20 21 22 23 24 25 26 27 28 29 30 31 32 33 34 35 36 37 38 39 40 41 42 43 44 45 46 47 48 49 50
000
ASUS41 KCTP 112010
RWRCTP

REGIONAL WEATHER ROUNDUP
NATIONAL WEATHER SERVICE STATE COLLEGE PA
300 PM EST THU FEB 11 2016

Note: "fair" indicates few or no clouds below 12,000 feet with no
significant weather and/or obstructions to visibility.

* = STATION THAT DOES NOT REPORT PRECIPITATION /E.G. RAIN...SNOW...ETC/
    THUNDER OR FOG.

PAZ002>004-007>009-013>016-020>023-029>032-112100-
WESTERN PENNSYLVANIA

CITY           SKY/WX    TMP DP  RH WIND       PRES   REMARKS
ERIE           CLOUDY    17   3  54 W17G26    30.14R HAZE    WCI   1
MEADVILLE      CLOUDY    16   0  49 W13G24    30.08R WCI   2
FRANKLIN*      CLOUDY    14   0  52 W10G22    30.09R WCI   1
NEW CASTLE     FLURRIES  16   7  67 W10       30.15S WCI   4
BEAVER COUNTY  CLOUDY    19   3  49 W12G24    30.13R WCI   7
BUTLER*        CLOUDY    16   7  67 W7G22     30.15R WCI   6
PITTSBURGH INT FLURRIES  16   4  59 W17G28    30.14R WCI   0
PITTSBURGH     CLOUDY    19   0  43 W20G26    30.13R WCI   3
INDIANA*       PTSUNNY   18   7  62 W14G24    30.10R HAZE    WCI   4
LATROBE        PTSUNNY   16   5  62 W17       30.13  WCI   0
WASHINGTON CO* CLOUDY    18   3  53 W14G24    30.16R WCI   4
$$

PAZ004>006-010>012-017>019-024>028-033>037-041-042-045-046-049>053-112100-
CENTRAL PENNSYLVANIA

CITY           SKY/WX    TMP DP  RH WIND       PRES   REMARKS
BRADFORD       HVY SNOW  11   5  77 NW21G28   29.93R VSB 1/4 WCI  -8
DUBOIS         PTSUNNY   12   1  61 W20G29    30.00R HAZE    WCI  -6
CLEARFIELD     CLOUDY    18   1  47 W18G31    30.00R WCI   2
JOHNSTOWN      CLOUDY    12  -2  53 W22G33    29.96S BLWGSNOWWCI  -7
ALTOONA        CLOUDY    16   2  54 NW20      30.03R WCI  -1
STATE COLLEGE  CLOUDY    18   0  45 W13G24    30.00R WCI   4
WILLIAMSPORT   CLOUDY    21   2  43 NW18G31   30.01R WCI   6
SELINSGROVE    CLOUDY    22   7  52 W10G18    30.04R WCI  11
FT INDIANTOWN  MOSUNNY   22   1  40 W18G32    30.02R WCI   8
CAPITAL CITY   PTSUNNY   23   2  40 W18G30    30.07R WCI   9
HARRISBURG     PTSUNNY   24   7  48 W25G35    30.06R WCI   8
YORK           CLOUDY    21   2  43 W16G23    30.07R WCI   7
$$

PAZ038>040-043-044-047-048-054-055-060>062-067>071-112100-
EASTERN PENNSYLVANIA

CITY           SKY/WX    TMP DP  RH WIND       PRES   REMARKS
SCRANTON       CLOUDY    18  -2  41 NW25G35   29.92R WCI   0
MOUNT POCONO   CLOUDY    13  -4  46 NW18G29   29.81R WCI  -4
ALLENTOWN      PTSUNNY   23   8  52 W15G25    29.98R WCI  10
QUAKERTOWN*    MOCLDY    23   1  39 NW15G21   29.98R WCI  10
READING        CLOUDY    23   5  46 W18G32    30.01R WCI   9
LANCASTER      CLOUDY    21   6  52 W21G30    30.04R WCI   5
COATESVILLE    FLURRIES  19   9  63 W22       30.03R WCI   3
POTTSTOWN      CLOUDY    22   4  46 W20G29    30.03R WCI   7
BLUE BELL        N/A     23   5  46 W10G20    30.00R WCI  12
DOYLESTOWN     CLOUDY    23  -1  35 W16G29    29.97R WCI  10
WILLOW GROVE   NOT AVBL
NORTH PHILA    PTSUNNY   25   4  40 NW22G31   30.03R WCI  10
PHILADELPHIA   PTSUNNY   26  -1  31 W21G36    30.05R WCI  12
$$



USA.gov is the U.S. government's official web portal to all federal, state and local government web resources and services.